Location: Bonnesvalyn
(49.1218°N, 3.3177°E)
Time: 09:17:44
(UTC+00:00)

Cosmos 2278 Rocket - Pass Details

Date: 09 February 2023
Orbit: 841 x 845 km, 71.0° (Epoch: 23 March)

Event Time Altitude Azimuth Distance (km) Brightness Sun altitude
Rises 20:11:46 0° 322° (NW) 3,415 6.1 -32.2°
Reaches altitude 10° 20:14:39 10° 309° (NW) 2,474 5.4 -32.6°
Maximum altitude 20:19:02 24° 258° (WSW) 1,700 4.2 -33.3°
Enters shadow 20:22:38 13° 213° (SSW) 2,241 4.5 -33.9°
